| time (UTC) | temp F | wind direction | speed MPH | gust MPH | rain 1hr in | rain 24hr in | rain mn in | humidity % | barometer mb |
| 20260506184533 | 51 | 29 | 1.0 | 4.0 | 0.00 | 0.31 | 0.18 | 77 | 1012.2 |
| 20260506184015 | 51 | 0 | 0.0 | 4.0 | 0.00 | 0.31 | 0.18 | 77 | 1012.1 |
| 20260506183513 | 51 | 0 | 1.0 | 4.0 | 0.00 | 0.31 | 0.18 | 76 | 1012.2 |
| 20260506183032 | 51 | 23 | 1.0 | 4.0 | 0.00 | 0.31 | 0.18 | 76 | 1012.1 |
| 20260506182515 | 52 | 58 | 1.0 | 5.0 | 0.00 | 0.31 | 0.18 | 76 | 1012.0 |
| 20260506182014 | 52 | 78 | 1.0 | 6.0 | 0.00 | 0.31 | 0.18 | 76 | 1012.0 |
| 20260506181532 | 52 | 48 | 1.0 | 6.0 | 0.00 | 0.31 | 0.18 | 76 | 1011.9 |
| 20260506181016 | 52 | 71 | 2.0 | 6.0 | 0.00 | 0.31 | 0.18 | 77 | 1011.8 |
| 20260506180516 | 53 | 0 | 1.0 | 5.0 | 0.00 | 0.31 | 0.18 | 76 | 1011.7 |
| 20260506180038 | 53 | 38 | 1.0 | 8.0 | 0.00 | 0.31 | 0.18 | 76 | 1011.6 |
| 20260506175516 | 53 | 67 | 1.0 | 8.0 | 0.00 | 0.31 | 0.18 | 77 | 1011.5 |
| 20260506175017 | 53 | 0 | 1.0 | 6.0 | 0.00 | 0.31 | 0.18 | 78 | 1011.5 |
| 20260506174533 | 54 | 33 | 2.0 | 5.0 | 0.00 | 0.31 | 0.18 | 78 | 1011.4 |
| 20260506174013 | 54 | 0 | 0.0 | 3.0 | 0.00 | 0.31 | 0.18 | 78 | 1011.4 |
| 20260506173515 | 54 | 18 | 0.0 | 5.0 | 0.00 | 0.31 | 0.18 | 78 | 1011.3 |
| 20260506173031 | 54 | 0 | 1.0 | 6.0 | 0.00 | 0.31 | 0.18 | 77 | 1011.3 |
| 20260506172515 | 54 | 0 | 1.0 | 7.0 | 0.00 | 0.31 | 0.18 | 77 | 1011.2 |
| 20260506172013 | 54 | 40 | 1.0 | 7.0 | 0.00 | 0.31 | 0.18 | 77 | 1011.2 |
| 20260506171539 | 54 | 66 | 1.0 | 7.0 | 0.00 | 0.31 | 0.18 | 77 | 1011.2 |
| 20260506171015 | 54 | 0 | 1.0 | 7.0 | 0.00 | 0.31 | 0.18 | 78 | 1011.2 |
| 20260506170517 | 54 | 58 | 1.0 | 7.0 | 0.00 | 0.31 | 0.18 | 79 | 1011.1 |
| 20260506170027 | 54 | 0 | 0.0 | 3.0 | 0.00 | 0.31 | 0.18 | 79 | 1011.1 |
| 20260506165516 | 54 | 0 | 0.0 | 3.0 | 0.00 | 0.31 | 0.18 | 79 | 1011.0 |
| 20260506165015 | 54 | 326 | 0.0 | 5.0 | 0.00 | 0.31 | 0.18 | 79 | 1011.0 |
| 20260506164531 | 54 | 325 | 1.0 | 5.0 | 0.00 | 0.31 | 0.18 | 79 | 1010.9 |
| 20260506164013 | 54 | 325 | 2.0 | 4.0 | 0.00 | 0.31 | 0.18 | 78 | 1010.9 |
| 20260506163517 | 54 | 316 | 2.0 | 6.0 | 0.00 | 0.31 | 0.18 | 79 | 1010.9 |
| 20260506163035 | 54 | 335 | 2.0 | 6.0 | 0.00 | 0.31 | 0.18 | 78 | 1010.9 |
| 20260506162513 | 55 | 339 | 2.0 | 5.0 | 0.00 | 0.31 | 0.18 | 78 | 1010.8 |
| 20260506162014 | 55 | 344 | 1.0 | 5.0 | 0.00 | 0.31 | 0.18 | 78 | 1010.8 |
| 20260506161532 | 55 | 0 | 1.0 | 6.0 | 0.00 | 0.31 | 0.18 | 79 | 1010.8 |
| 20260506161013 | 55 | 0 | 1.0 | 6.0 | 0.00 | 0.31 | 0.18 | 77 | 1010.8 |
| 20260506160515 | 55 | 352 | 0.0 | 7.0 | 0.00 | 0.31 | 0.18 | 78 | 1010.9 |
| 20260506160032 | 55 | 0 | 0.0 | 7.0 | 0.00 | 0.31 | 0.18 | 77 | 1010.8 |
| 20260506155512 | 55 | 319 | 3.0 | 8.0 | 0.00 | 0.31 | 0.18 | 78 | 1010.9 |
| 20260506155016 | 55 | 341 | 1.0 | 8.0 | 0.00 | 0.31 | 0.18 | 78 | 1010.8 |
| 20260506154533 | 55 | 349 | 2.0 | 9.0 | 0.00 | 0.31 | 0.18 | 78 | 1010.8 |
| 20260506154012 | 55 | 331 | 4.0 | 9.0 | 0.00 | 0.31 | 0.18 | 78 | 1010.7 |
| 20260506153513 | 55 | 356 | 2.0 | 7.0 | 0.00 | 0.31 | 0.18 | 79 | 1010.6 |
| 20260506153031 | 55 | 313 | 3.0 | 7.0 | 0.00 | 0.31 | 0.18 | 79 | 1010.6 |
| 20260506152520 | 55 | 334 | 2.0 | 7.0 | 0.00 | 0.31 | 0.18 | 82 | 1010.7 |
| 20260506152014 | 55 | 0 | 1.0 | 7.0 | 0.00 | 0.31 | 0.18 | 82 | 1010.6 |
| 20260506151533 | 54 | 291 | 1.0 | 7.0 | 0.00 | 0.31 | 0.18 | 82 | 1010.6 |
| 20260506151014 | 54 | 0 | 0.0 | 0.0 | 0.00 | 0.31 | 0.18 | 84 | 1010.7 |
| 20260506150515 | 54 | 0 | 0.0 | 0.0 | 0.00 | 0.31 | 0.18 | 84 | 1010.6 |
| 20260506150032 | 53 | 0 | 0.0 | 0.0 | 0.00 | 0.31 | 0.18 | 84 | 1010.6 |
| 20260506145515 | 53 | 0 | 0.0 | 0.0 | 0.00 | 0.31 | 0.18 | 84 | 1010.6 |
| 20260506145012 | 53 | 0 | 0.0 | 0.0 | 0.00 | 0.31 | 0.18 | 84 | 1010.7 |
| 20260506144530 | 53 | 0 | 0.0 | 0.0 | 0.00 | 0.31 | 0.18 | 84 | 1010.7 |
| 20260506144013 | 53 | 0 | 0.0 | 0.0 | 0.00 | 0.31 | 0.18 | 85 | 1010.6 |
| 20260506143514 | 53 | 0 | 0.0 | 0.0 | 0.00 | 0.31 | 0.18 | 86 | 1010.7 |
| 20260506143028 | 53 | 0 | 0.0 | 0.0 | 0.00 | 0.31 | 0.18 | 86 | 1010.8 |
| 20260506142515 | 53 | 0 | 0.0 | 0.0 | 0.00 | 0.31 | 0.18 | 85 | 1010.8 |
| 20260506142015 | 53 | 0 | 0.0 | 0.0 | 0.00 | 0.31 | 0.18 | 85 | 1010.8 |
| 20260506141530 | 53 | 0 | 0.0 | 2.0 | 0.00 | 0.31 | 0.18 | 85 | 1010.7 |
| 20260506141014 | 53 | 0 | 0.0 | 3.0 | 0.00 | 0.31 | 0.18 | 86 | 1010.8 |
| 20260506140513 | 53 | 0 | 0.0 | 6.0 | 0.00 | 0.31 | 0.18 | 85 | 1010.8 |
| 20260506140034 | 53 | 333 | 1.0 | 6.0 | 0.00 | 0.31 | 0.18 | 85 | 1010.7 |
| 20260506135513 | 53 | 333 | 2.0 | 6.0 | 0.00 | 0.31 | 0.18 | 85 | 1010.9 |
| 20260506135013 | 53 | 305 | 1.0 | 4.0 | 0.00 | 0.31 | 0.18 | 85 | 1010.8 |
| 20260506134533 | 53 | 299 | 1.0 | 7.0 | 0.00 | 0.31 | 0.18 | 86 | 1010.8 |
| 20260506134014 | 53 | 293 | 2.0 | 7.0 | 0.00 | 0.31 | 0.18 | 86 | 1010.8 |
| 20260506133515 | 53 | 300 | 2.0 | 6.0 | 0.00 | 0.31 | 0.18 | 87 | 1010.8 |
| 20260506133031 | 53 | 309 | 2.0 | 6.0 | 0.00 | 0.31 | 0.18 | 89 | 1010.8 |
| 20260506132516 | 52 | 309 | 0.0 | 4.0 | 0.00 | 0.31 | 0.18 | 89 | 1010.7 |
| 20260506132012 | 52 | 308 | 2.0 | 4.0 | 0.00 | 0.31 | 0.18 | 89 | 1010.9 |
| 20260506131534 | 52 | 308 | 2.0 | 4.0 | 0.00 | 0.31 | 0.18 | 90 | 1010.8 |
| 20260506131016 | 52 | 0 | 0.0 | 5.0 | 0.00 | 0.31 | 0.18 | 91 | 1010.8 |
| 20260506130517 | 52 | 0 | 1.0 | 5.0 | 0.00 | 0.31 | 0.18 | 91 | 1010.8 |
| 20260506130030 | 52 | 310 | 1.0 | 5.0 | 0.00 | 0.31 | 0.18 | 92 | 1010.7 |
| 20260506125515 | 52 | 318 | 2.0 | 5.0 | 0.00 | 0.31 | 0.18 | 92 | 1010.7 |
| 20260506125016 | 52 | 280 | 0.0 | 5.0 | 0.00 | 0.31 | 0.18 | 92 | 1010.6 |
| 20260506124533 | 52 | 264 | 2.0 | 5.0 | 0.00 | 0.31 | 0.18 | 92 | 1010.6 |
| 20260506124013 | 52 | 314 | 2.0 | 6.0 | 0.00 | 0.31 | 0.18 | 92 | 1010.6 |
| 20260506123515 | 52 | 289 | 1.0 | 6.0 | 0.00 | 0.31 | 0.18 | 93 | 1010.5 |
| 20260506123029 | 51 | 320 | 2.0 | 4.0 | 0.00 | 0.31 | 0.18 | 93 | 1010.6 |
| 20260506122518 | 51 | 325 | 1.0 | 5.0 | 0.00 | 0.31 | 0.18 | 93 | 1010.4 |
| 20260506122018 | 51 | 326 | 1.0 | 5.0 | 0.00 | 0.31 | 0.18 | 93 | 1010.6 |
| 20260506121534 | 51 | 328 | 1.0 | 5.0 | 0.00 | 0.31 | 0.18 | 94 | 1010.6 |
| 20260506121017 | 51 | 0 | 1.0 | 5.0 | 0.00 | 0.31 | 0.18 | 94 | 1010.5 |
| 20260506120517 | 51 | 0 | 0.0 | 6.0 | 0.00 | 0.31 | 0.18 | 94 | 1010.6 |
| 20260506120039 | 51 | 339 | 2.0 | 6.0 | 0.00 | 0.31 | 0.18 | 94 | 1010.4 |
| 20260506115516 | 51 | 335 | 1.0 | 9.0 | 0.00 | 0.31 | 0.18 | 95 | 1010.5 |
| 20260506115017 | 51 | 0 | 2.0 | 9.0 | 0.00 | 0.31 | 0.18 | 95 | 1010.4 |
| 20260506114538 | 51 | 326 | 3.0 | 9.0 | 0.00 | 0.31 | 0.18 | 95 | 1010.4 |
| 20260506114015 | 51 | 0 | 1.0 | 5.0 | 0.00 | 0.31 | 0.18 | 95 | 1010.4 |
| 20260506113519 | 51 | 0 | 0.0 | 6.0 | 0.00 | 0.31 | 0.18 | 95 | 1010.5 |
| 20260506113032 | 50 | 331 | 1.0 | 6.0 | 0.00 | 0.31 | 0.18 | 95 | 1010.4 |
| 20260506112519 | 50 | 326 | 0.0 | 7.0 | 0.00 | 0.31 | 0.18 | 95 | 1010.5 |
| 20260506112018 | 50 | 336 | 1.0 | 8.0 | 0.00 | 0.31 | 0.18 | 95 | 1010.4 |
| 20260506111529 | 50 | 0 | 2.0 | 8.0 | 0.00 | 0.31 | 0.18 | 95 | 1010.5 |
| 20260506111017 | 50 | 345 | 2.0 | 8.0 | 0.00 | 0.31 | 0.18 | 95 | 1010.5 |
| 20260506110519 | 50 | 52 | 0.0 | 4.0 | 0.00 | 0.31 | 0.18 | 96 | 1010.4 |
| 20260506110034 | 50 | 0 | 0.0 | 5.0 | 0.00 | 0.31 | 0.18 | 96 | 1010.4 |
| 20260506105519 | 50 | 0 | 0.0 | 5.0 | 0.00 | 0.32 | 0.18 | 96 | 1010.4 |
| 20260506105017 | 50 | 0 | 0.0 | 4.0 | 0.00 | 0.32 | 0.18 | 96 | 1010.6 |
| 20260506104534 | 50 | 0 | 0.0 | 1.0 | 0.00 | 0.32 | 0.18 | 95 | 1010.6 |
| 20260506104016 | 50 | 0 | 0.0 | 3.0 | 0.00 | 0.32 | 0.18 | 96 | 1010.7 |
| 20260506103517 | 49 | 0 | 0.0 | 3.0 | 0.00 | 0.32 | 0.18 | 96 | 1010.7 |
| 20260506103033 | 49 | 0 | 0.0 | 3.0 | 0.00 | 0.32 | 0.18 | 96 | 1010.6 |
| 20260506102518 | 49 | 0 | 0.0 | 4.0 | 0.00 | 0.32 | 0.18 | 95 | 1010.6 |
| 20260506102016 | 49 | 349 | 0.0 | 5.0 | 0.00 | 0.32 | 0.18 | 95 | 1010.6 |
| 20260506101530 | 49 | 0 | 1.0 | 5.0 | 0.00 | 0.32 | 0.18 | 95 | 1010.6 |
| 20260506101015 | 49 | 341 | 1.0 | 6.0 | 0.00 | 0.32 | 0.18 | 96 | 1010.6 |
| 20260506100515 | 48 | 0 | 0.0 | 6.0 | 0.00 | 0.32 | 0.18 | 96 | 1010.5 |
| 20260506100029 | 48 | 0 | 0.0 | 5.0 | 0.00 | 0.32 | 0.18 | 95 | 1010.4 |
| 20260506095516 | 48 | 0 | 0.0 | 5.0 | 0.00 | 0.32 | 0.18 | 95 | 1010.4 |
| 20260506095016 | 48 | 0 | 0.0 | 7.0 | 0.00 | 0.32 | 0.18 | 95 | 1010.3 |
| 20260506094529 | 48 | 0 | 1.0 | 7.0 | 0.00 | 0.32 | 0.18 | 95 | 1010.4 |
| 20260506094015 | 48 | 0 | 1.0 | 7.0 | 0.00 | 0.32 | 0.18 | 95 | 1010.3 |
| 20260506093520 | 48 | 0 | 1.0 | 7.0 | 0.00 | 0.32 | 0.18 | 95 | 1010.3 |
| 20260506093032 | 47 | 0 | 1.0 | 6.0 | 0.00 | 0.32 | 0.18 | 95 | 1010.3 |
| 20260506092520 | 47 | 345 | 0.0 | 7.0 | 0.00 | 0.32 | 0.18 | 95 | 1010.2 |
| 20260506092016 | 47 | 0 | 2.0 | 7.0 | 0.00 | 0.32 | 0.18 | 95 | 1010.2 |
| 20260506091531 | 47 | 331 | 0.0 | 6.0 | 0.00 | 0.32 | 0.18 | 95 | 1010.1 |
| 20260506091016 | 47 | 0 | 0.0 | 6.0 | 0.00 | 0.32 | 0.18 | 95 | 1010.2 |
| 20260506090515 | 47 | 0 | 0.0 | 4.0 | 0.00 | 0.32 | 0.18 | 95 | 1010.0 |
| 20260506090029 | 47 | 0 | 0.0 | 8.0 | 0.00 | 0.32 | 0.18 | 95 | 1010.1 |
| 20260506085515 | 47 | 0 | 1.0 | 9.0 | 0.00 | 0.32 | 0.18 | 95 | 1010.0 |
| 20260506085016 | 47 | 0 | 1.0 | 9.0 | 0.01 | 0.32 | 0.18 | 95 | 1009.9 |
| 20260506084539 | 47 | 0 | 2.0 | 9.0 | 0.01 | 0.32 | 0.18 | 95 | 1009.8 |
| 20260506084015 | 47 | 0 | 0.0 | 12.0 | 0.01 | 0.32 | 0.18 | 95 | 1009.9 |
| 20260506083516 | 47 | 48 | 3.0 | 12.0 | 0.01 | 0.32 | 0.18 | 95 | 1009.8 |
| 20260506083030 | 47 | 0 | 1.0 | 8.0 | 0.01 | 0.32 | 0.18 | 95 | 1009.8 |
| 20260506082515 | 47 | 0 | 2.0 | 9.0 | 0.01 | 0.32 | 0.18 | 95 | 1009.7 |
| 20260506082018 | 47 | 348 | 1.0 | 10.0 | 0.01 | 0.32 | 0.18 | 95 | 1009.7 |
| 20260506081533 | 47 | 2 | 2.0 | 10.0 | 0.01 | 0.32 | 0.18 | 95 | 1009.6 |
| 20260506081015 | 47 | 324 | 3.0 | 10.0 | 0.01 | 0.32 | 0.18 | 95 | 1009.6 |
| 20260506080516 | 47 | 15 | 2.0 | 10.0 | 0.01 | 0.32 | 0.18 | 95 | 1009.6 |
| 20260506073517 | 46 | 1 | 2.0 | 9.0 | 0.00 | 0.31 | 0.17 | 95 | 1009.5 |
| 20260506073029 | 46 | 62 | 1.0 | 8.0 | 0.00 | 0.31 | 0.17 | 95 | 1009.4 |
| 20260506072514 | 46 | 18 | 2.0 | 7.0 | 0.00 | 0.31 | 0.17 | 95 | 1009.5 |
| 20260506072016 | 46 | 348 | 1.0 | 6.0 | 0.01 | 0.31 | 0.17 | 95 | 1009.4 |
| 20260506071532 | 46 | 0 | 1.0 | 7.0 | 0.01 | 0.31 | 0.17 | 95 | 1009.4 |
| 20260506071017 | 46 | 322 | 1.0 | 9.0 | 0.01 | 0.31 | 0.17 | 95 | 1009.5 |
| 20260506070517 | 46 | 0 | 3.0 | 9.0 | 0.01 | 0.31 | 0.17 | 95 | 1009.4 |
| 20260506062515 | 46 | 0 | 0.0 | 6.0 | 0.01 | 0.31 | 0.17 | 95 | 1009.2 |
| 20260506062016 | 46 | 335 | 1.0 | 6.0 | 0.00 | 0.30 | 0.16 | 95 | 1009.1 |
| 20260506061538 | 46 | 335 | 0.0 | 7.0 | 0.00 | 0.30 | 0.16 | 95 | 1009.2 |
| 20260506061019 | 46 | 334 | 1.0 | 7.0 | 0.00 | 0.30 | 0.16 | 95 | 1009.2 |
| 20260506060517 | 46 | 349 | 2.0 | 7.0 | 0.01 | 0.30 | 0.16 | 95 | 1009.2 |
| 20260506051014 | 45 | 347 | 2.0 | 9.0 | 0.04 | 0.30 | 0.16 | 95 | 1009.2 |
| 20260506050514 | 45 | 339 | 2.0 | 9.0 | 0.03 | 0.29 | 0.15 | 95 | 1009.1 |
| 20260506045017 | 45 | 0 | 1.0 | 5.0 | 0.03 | 0.29 | 0.15 | 95 | 1009.1 |
| 20260506044537 | 45 | 0 | 1.0 | 6.0 | 0.02 | 0.28 | 0.14 | 95 | 1009.1 |
| 20260506044016 | 45 | 337 | 1.0 | 6.0 | 0.02 | 0.28 | 0.14 | 95 | 1009.0 |
| 20260506043516 | 45 | 0 | 2.0 | 7.0 | 0.01 | 0.27 | 0.13 | 95 | 1009.1 |
| 20260506043031 | 45 | 0 | 2.0 | 7.0 | 0.01 | 0.27 | 0.13 | 95 | 1008.9 |
| 20260506042519 | 45 | 330 | 1.0 | 5.0 | 0.02 | 0.27 | 0.13 | 95 | 1009.0 |
| 20260506042015 | 45 | 326 | 1.0 | 5.0 | 0.02 | 0.27 | 0.13 | 95 | 1009.1 |
| 20260506041533 | 45 | 329 | 1.0 | 7.0 | 0.01 | 0.26 | 0.12 | 95 | 1009.1 |
| 20260506041016 | 45 | 332 | 2.0 | 7.0 | 0.01 | 0.26 | 0.12 | 95 | 1009.0 |
| 20260506040518 | 45 | 0 | 1.0 | 6.0 | 0.01 | 0.26 | 0.12 | 95 | 1009.0 |
| 20260506040033 | 45 | 337 | 0.0 | 6.0 | 0.01 | 0.26 | 0.12 | 95 | 1009.0 |
| 20260506035517 | 46 | 0 | 1.0 | 7.0 | 0.01 | 0.26 | 0.12 | 95 | 1009.1 |
| 20260506035016 | 46 | 354 | 1.0 | 7.0 | 0.01 | 0.26 | 0.12 | 95 | 1009.0 |
| 20260506034532 | 46 | 0 | 0.0 | 6.0 | 0.01 | 0.26 | 0.12 | 95 | 1009.1 |
| 20260506034015 | 46 | 0 | 0.0 | 7.0 | 0.01 | 0.26 | 0.12 | 95 | 1009.1 |
| 20260506033517 | 46 | 0 | 0.0 | 8.0 | 0.01 | 0.26 | 0.12 | 95 | 1009.2 |
| 20260506033034 | 46 | 0 | 2.0 | 8.0 | 0.01 | 0.26 | 0.12 | 95 | 1009.1 |
| 20260506032515 | 46 | 341 | 1.0 | 9.0 | 0.00 | 0.25 | 0.11 | 95 | 1009.1 |
| 20260506032017 | 46 | 346 | 3.0 | 9.0 | 0.00 | 0.25 | 0.11 | 95 | 1009.1 |
| 20260506031536 | 46 | 0 | 2.0 | 8.0 | 0.00 | 0.25 | 0.11 | 95 | 1009.2 |
| 20260506031016 | 46 | 328 | 2.0 | 8.0 | 0.00 | 0.25 | 0.11 | 95 | 1009.1 |
| 20260506030514 | 46 | 328 | 0.0 | 5.0 | 0.00 | 0.25 | 0.11 | 95 | 1009.1 |
| 20260506030050 | 46 | 333 | 0.0 | 5.0 | 0.01 | 0.25 | 0.11 | 95 | 1009.2 |
| 20260506025514 | 46 | 333 | 1.0 | 8.0 | 0.01 | 0.25 | 0.11 | 95 | 1009.3 |
| 20260506025017 | 46 | 336 | 2.0 | 8.0 | 0.01 | 0.25 | 0.11 | 95 | 1009.2 |
| 20260506024542 | 46 | 0 | 1.0 | 5.0 | 0.01 | 0.25 | 0.11 | 95 | 1009.3 |
| 20260506024015 | 46 | 326 | 1.0 | 6.0 | 0.01 | 0.25 | 0.11 | 95 | 1009.4 |
| 20260506023515 | 46 | 0 | 0.0 | 7.0 | 0.01 | 0.25 | 0.11 | 95 | 1009.3 |
| 20260506023035 | 46 | 343 | 1.0 | 7.0 | 0.01 | 0.25 | 0.11 | 95 | 1009.4 |
| 20260506022517 | 46 | 0 | 0.0 | 8.0 | 0.01 | 0.25 | 0.11 | 95 | 1009.4 |
| 20260506022017 | 46 | 0 | 0.0 | 8.0 | 0.01 | 0.25 | 0.11 | 95 | 1009.4 |
| 20260506021533 | 46 | 326 | 1.0 | 7.0 | 0.02 | 0.25 | 0.11 | 95 | 1009.4 |
| 20260506021017 | 46 | 332 | 0.0 | 6.0 | 0.02 | 0.25 | 0.11 | 95 | 1009.4 |
| 20260506020517 | 46 | 0 | 1.0 | 8.0 | 0.02 | 0.25 | 0.11 | 95 | 1009.3 |
| 20260506020032 | 46 | 0 | 0.0 | 8.0 | 0.01 | 0.24 | 0.10 | 95 | 1009.3 |
| 20260506015517 | 46 | 328 | 2.0 | 6.0 | 0.01 | 0.24 | 0.10 | 95 | 1009.3 |
| 20260506015015 | 46 | 353 | 0.0 | 6.0 | 0.01 | 0.24 | 0.10 | 95 | 1009.4 |
| 20260506014534 | 46 | 0 | 0.0 | 6.0 | 0.02 | 0.24 | 0.10 | 95 | 1009.3 |
| 20260506014015 | 47 | 0 | 1.0 | 6.0 | 0.02 | 0.24 | 0.10 | 95 | 1009.4 |
| 20260506013515 | 47 | 0 | 0.0 | 3.0 | 0.02 | 0.24 | 0.10 | 95 | 1009.4 |
| 20260506013031 | 47 | 0 | 0.0 | 7.0 | 0.02 | 0.24 | 0.10 | 95 | 1009.4 |
| 20260506012516 | 47 | 322 | 0.0 | 7.0 | 0.03 | 0.24 | 0.10 | 95 | 1009.4 |
| 20260506012015 | 47 | 0 | 0.0 | 9.0 | 0.03 | 0.24 | 0.10 | 95 | 1009.4 |
| 20260506011536 | 47 | 0 | 0.0 | 9.0 | 0.02 | 0.23 | 0.09 | 95 | 1009.5 |
| 20260506011020 | 47 | 342 | 1.0 | 7.0 | 0.02 | 0.23 | 0.09 | 95 | 1009.4 |
| 20260506010515 | 47 | 336 | 1.0 | 6.0 | 0.03 | 0.23 | 0.09 | 95 | 1009.4 |
| 20260506010036 | 47 | 0 | 1.0 | 5.0 | 0.03 | 0.23 | 0.09 | 95 | 1009.5 |
| 20260506005515 | 47 | 26 | 0.0 | 5.0 | 0.03 | 0.23 | 0.09 | 95 | 1009.5 |
| 20260506005015 | 47 | 0 | 0.0 | 7.0 | 0.03 | 0.23 | 0.09 | 95 | 1009.5 |
| 20260506004544 | 47 | 4 | 1.0 | 7.0 | 0.02 | 0.22 | 0.08 | 95 | 1009.5 |
| 20260506004015 | 47 | 344 | 1.0 | 7.0 | 0.03 | 0.22 | 0.08 | 95 | 1009.5 |
| 20260506003515 | 47 | 0 | 0.0 | 7.0 | 0.03 | 0.22 | 0.08 | 95 | 1009.5 |
| 20260506003038 | 47 | 25 | 0.0 | 5.0 | 0.03 | 0.22 | 0.08 | 95 | 1009.6 |
| 20260506002516 | 47 | 0 | 0.0 | 8.0 | 0.02 | 0.21 | 0.07 | 95 | 1009.6 |
| 20260506002019 | 48 | 32 | 0.0 | 8.0 | 0.02 | 0.21 | 0.07 | 95 | 1009.7 |
| 20260506001531 | 48 | 347 | 1.0 | 7.0 | 0.03 | 0.21 | 0.07 | 95 | 1009.7 |
| 20260506001017 | 48 | 0 | 0.0 | 6.0 | 0.03 | 0.21 | 0.07 | 95 | 1009.7 |
| 20260506000517 | 48 | 0 | 0.0 | 10.0 | 0.02 | 0.20 | 0.06 | 95 | 1009.8 |
| 20260506000033 | 48 | 0 | 1.0 | 10.0 | 0.02 | 0.20 | 0.06 | 95 | 1009.8 |
| 20260505235517 | 48 | 0 | 0.0 | 6.0 | 0.03 | 0.20 | 0.06 | 95 | 1009.8 |
| 20260505235016 | 48 | 353 | 0.0 | 8.0 | 0.03 | 0.20 | 0.06 | 95 | 1009.8 |
| 20260505234533 | 48 | 341 | 0.0 | 8.0 | 0.03 | 0.20 | 0.06 | 95 | 1009.9 |
| 20260505234016 | 48 | 321 | 2.0 | 7.0 | 0.02 | 0.19 | 0.05 | 95 | 1009.9 |
| 20260505233518 | 48 | 0 | 1.0 | 10.0 | 0.03 | 0.19 | 0.05 | 95 | 1010.0 |
| 20260505233029 | 48 | 14 | 0.0 | 10.0 | 0.03 | 0.19 | 0.05 | 95 | 1009.9 |
| 20260505232516 | 48 | 60 | 3.0 | 10.0 | 0.03 | 0.19 | 0.05 | 95 | 1010.0 |
| 20260505232017 | 49 | 61 | 1.0 | 11.0 | 0.03 | 0.19 | 0.05 | 95 | 1009.9 |
| 20260505231532 | 49 | 40 | 2.0 | 11.0 | 0.03 | 0.18 | 0.04 | 95 | 1009.9 |
| 20260505231016 | 49 | 33 | 3.0 | 11.0 | 0.03 | 0.18 | 0.04 | 95 | 1009.9 |
| 20260505230519 | 49 | 60 | 0.0 | 5.0 | 0.03 | 0.18 | 0.04 | 95 | 1010.0 |
| 20260505230044 | 49 | 59 | 0.0 | 5.0 | 0.04 | 0.18 | 0.04 | 95 | 1010.1 |
| 20260505225515 | 49 | 74 | 1.0 | 7.0 | 0.03 | 0.17 | 0.03 | 95 | 1010.1 |
| 20260505225020 | 49 | 64 | 1.0 | 9.0 | 0.03 | 0.17 | 0.03 | 95 | 1010.2 |
| 20260505224536 | 49 | 33 | 0.0 | 9.0 | 0.04 | 0.17 | 0.03 | 95 | 1010.1 |
| 20260505224015 | 49 | 0 | 0.0 | 7.0 | 0.04 | 0.17 | 0.03 | 95 | 1010.2 |
| 20260505223514 | 49 | 0 | 0.0 | 7.0 | 0.03 | 0.16 | 0.02 | 95 | 1010.1 |
| 20260505223035 | 49 | 66 | 2.0 | 8.0 | 0.03 | 0.16 | 0.02 | 95 | 1010.1 |
| 20260505222519 | 49 | 73 | 1.0 | 8.0 | 0.04 | 0.16 | 0.02 | 95 | 1010.1 |
| 20260505222015 | 49 | 0 | 1.0 | 8.0 | 0.04 | 0.16 | 0.02 | 95 | 1010.2 |
| 20260505221530 | 49 | 0 | 1.0 | 9.0 | 0.03 | 0.15 | 0.01 | 95 | 1010.2 |
| 20260505221016 | 49 | 0 | 0.0 | 9.0 | 0.04 | 0.15 | 0.01 | 95 | 1010.2 |
| 20260505220514 | 49 | 0 | 2.0 | 6.0 | 0.04 | 0.15 | 0.01 | 95 | 1010.2 |
| 20260505220040 | 49 | 66 | 0.0 | 6.0 | 0.04 | 0.14 | 0.00 | 95 | 1010.3 |
| 20260505215516 | 49 | 0 | 1.0 | 7.0 | 0.04 | 0.14 | 0.14 | 95 | 1010.3 |
| 20260505215017 | 49 | 0 | 1.0 | 8.0 | 0.05 | 0.14 | 0.14 | 95 | 1010.2 |
| 20260505214534 | 49 | 0 | 2.0 | 8.0 | 0.04 | 0.13 | 0.13 | 95 | 1010.3 |
| 20260505214016 | 49 | 2 | 1.0 | 5.0 | 0.04 | 0.13 | 0.13 | 95 | 1010.3 |
| 20260505213520 | 49 | 0 | 0.0 | 5.0 | 0.05 | 0.13 | 0.13 | 95 | 1010.4 |
| 20260505213036 | 49 | 0 | 0.0 | 8.0 | 0.05 | 0.13 | 0.13 | 95 | 1010.4 |
| 20260505212516 | 49 | 0 | 0.0 | 8.0 | 0.05 | 0.12 | 0.12 | 95 | 1010.4 |
| 20260505212016 | 49 | 35 | 1.0 | 7.0 | 0.05 | 0.12 | 0.12 | 95 | 1010.4 |
| 20260505211534 | 49 | 12 | 0.0 | 4.0 | 0.05 | 0.12 | 0.12 | 95 | 1010.4 |
| 20260505211017 | 49 | 0 | 0.0 | 7.0 | 0.05 | 0.11 | 0.11 | 94 | 1010.4 |
| 20260505210518 | 49 | 0 | 1.0 | 7.0 | 0.05 | 0.11 | 0.11 | 94 | 1010.4 |
| 20260505210029 | 49 | 69 | 0.0 | 6.0 | 0.04 | 0.10 | 0.10 | 94 | 1010.5 |
| 20260505205515 | 49 | 0 | 0.0 | 7.0 | 0.04 | 0.10 | 0.10 | 94 | 1010.6 |
| 20260505205015 | 49 | 22 | 0.0 | 8.0 | 0.04 | 0.09 | 0.09 | 94 | 1010.4 |
| 20260505204533 | 49 | 49 | 0.0 | 8.0 | 0.04 | 0.09 | 0.09 | 94 | 1010.6 |
| 20260505204017 | 49 | 68 | 0.0 | 7.0 | 0.03 | 0.08 | 0.08 | 94 | 1010.5 |
| 20260505203514 | 49 | 62 | 1.0 | 4.0 | 0.04 | 0.08 | 0.08 | 95 | 1010.6 |
| 20260505203034 | 49 | 0 | 0.0 | 4.0 | 0.04 | 0.08 | 0.08 | 95 | 1010.6 |
| 20260505202516 | 49 | 32 | 0.0 | 5.0 | 0.04 | 0.07 | 0.07 | 95 | 1010.5 |
| 20260505202015 | 49 | 360 | 0.0 | 5.0 | 0.04 | 0.07 | 0.07 | 95 | 1010.5 |
| 20260505201534 | 49 | 58 | 0.0 | 7.0 | 0.05 | 0.07 | 0.07 | 95 | 1010.5 |
| 20260505201016 | 49 | 0 | 0.0 | 7.0 | 0.04 | 0.06 | 0.06 | 94 | 1010.4 |
| 20260505200516 | 49 | 0 | 1.0 | 7.0 | 0.05 | 0.06 | 0.06 | 95 | 1010.4 |
| 20260505200036 | 49 | 47 | 1.0 | 6.0 | 0.05 | 0.06 | 0.06 | 94 | 1010.4 |
| 20260505195519 | 49 | 0 | 0.0 | 5.0 | 0.05 | 0.06 | 0.06 | 94 | 1010.3 |
| 20260505195014 | 49 | 57 | 0.0 | 7.0 | 0.04 | 0.05 | 0.05 | 94 | 1010.3 |
| 20260505194533 | 49 | 0 | 0.0 | 7.0 | 0.04 | 0.05 | 0.05 | 94 | 1010.3 |
| 20260505194015 | 49 | 0 | 1.0 | 7.0 | 0.04 | 0.05 | 0.05 | 94 | 1010.3 |
| 20260505193514 | 49 | 42 | 0.0 | 8.0 | 0.03 | 0.04 | 0.04 | 94 | 1010.3 |
| 20260505193042 | 49 | 68 | 0.0 | 8.0 | 0.03 | 0.04 | 0.04 | 94 | 1010.2 |
| 20260505192516 | 49 | 0 | 1.0 | 9.0 | 0.02 | 0.03 | 0.03 | 94 | 1010.2 |
| 20260505192017 | 50 | 343 | 0.0 | 9.0 | 0.01 | 0.02 | 0.02 | 94 | 1010.2 |
| 20260505191540 | 50 | 72 | 0.0 | 9.0 | 0.01 | 0.02 | 0.02 | 94 | 1010.2 |
| 20260505191016 | 50 | 0 | 1.0 | 9.0 | 0.01 | 0.02 | 0.02 | 94 | 1010.2 |
| 20260505190515 | 50 | 39 | 1.0 | 7.0 | 0.00 | 0.01 | 0.01 | 94 | 1010.2 |
| 20260505190040 | 50 | 346 | 0.0 | 7.0 | 0.00 | 0.01 | 0.01 | 94 | 1010.2 |
| 20260505185516 | 50 | 22 | 0.0 | 6.0 | 0.00 | 0.09 | 0.01 | 94 | 1010.1 |